Back to catalog

THORAD DELTA 1 DEB

AliveUNKNOWN
NORAD 8567·DEBRIS·🇺🇸 United States

Launched Nov 15, 1974 from Vandenberg Space Force Base

Loading…

Next Passes (next 24 hours)

TLE

FreshSource: Space-Track

Epoch: Sep 14, 2026, 02:01 UTC

1 08567U 74089DE  26257.08438286  .00000036  00000-0  10541-2 0  9997
2 08567 100.6317 117.9745 0661952 197.9342 321.9926 11.33959974135893

Track THORAD DELTA 1 DEB in real time with AllMySat

Download on the App Store